Content
SEND FEEDBACK

Daily
Averages
Monthly
Summary
United States of America

CAMP QUEZON, GUAM


Home > North America > United States > Guam
Elevation: 82 meters     Latitude: 13 28N     Longitude: 144 48E

WEATHER
 
SELECT A DAY
Number of Records: 213,081;   Date Range: 1/1/95 - 9/30/14
 
SHARE

PRINT THIS DATA

[ ← Previous Day ]
WEATHER ALMANAC - 12 JULY, 2014
[ Next Day → ]
[ °F ]   °C
Weather ElementAverageHighLow
Temperature25.1 °C29 °C (4:37 pm) (12:24 pm)
Dewpoint23.4 °C25 °C (12:08 am) (7:00 pm)
Humidity90.7 %100 % (6:39 am)74 % (4:37 pm)
Barometer1008.8 hPa1010.5 hPa (1:54 am)1007.5 hPa (3:54 am)
Wind Speed11.4 km/h20.4 km/h (8:54 am)
Weather ElementAverage
Visibility12.2 km
Wind DirectionSSW (190.9 °)

Weather ElementTotal
Precipitation100.08 mm
Heating Degree Days12.7 (Base 18.3)
Averaged from 92 records on 12 July, 2014
WEATHER CONDITIONS BREAKOUT
WIND DIRECTION BREAKOUT
WEATHER BY HOUR - 12 JULY, 2014
[ °F ]   °C
Local TimeTemperatureDewpointHumidityBarometerVisibilityWind DirectionWind SpeedGust SpeedPrecipitationEventsConditions
12:54 AM26.1 °C25 °C94 %1009.8 hPa8 kmCalm4.83 mmRainRain
12:54 AM26.1 °C25 °C94 %1009.8 hPa8 kmCalm4.83 mmRainRain
1:02 AM26 °C25 °C94 %1010.5 hPa16.1 kmCalm0.25 mmRainLight Rain
1:02 AM26 °C25 °C94 %1010.5 hPa16.1 kmCalm0.25 mmRainLight Rain
1:08 AM26 °C25 °C94 %1010.5 hPa16.1 kmCalm0.25 mmRainLight Rain
1:08 AM26 °C25 °C94 %1010.5 hPa16.1 kmCalm0.25 mmRainLight Rain
1:54 AM25.6 °C25 °C96 %1009.5 hPa8 kmNorth (10°)7.4 km/h2.54 mmRainHeavy Rain
1:54 AM25.6 °C25 °C96 %1009.5 hPa8 kmNorth (10°)7.4 km/h2.54 mmRainHeavy Rain
2:00 AM24 °C24 °C100 %1010.2 hPa4 kmNorth (350°)16.7 km/h1.27 mmRainHeavy Rain
2:00 AM24 °C24 °C100 %1010.2 hPa4 kmNorth (350°)16.7 km/h1.27 mmRainHeavy Rain
2:09 AM24 °C23 °C94 %1010.2 hPa4.8 kmNNW (330°)16.7 km/h3.56 mmRainHeavy Rain
2:09 AM24 °C23 °C94 %1010.2 hPa4.8 kmNNW (330°)16.7 km/h3.56 mmRainHeavy Rain
2:54 AM23.6 °C23.3 °C98 %1009.1 hPa4.8 kmNW (320°)7.4 km/h11.94 mmRainLight Rain
2:54 AM23.6 °C23.3 °C98 %1009.1 hPa4.8 kmNW (320°)7.4 km/h11.94 mmRainLight Rain
3:01 AM24 °C23 °C94 %1009.5 hPa14.5 kmNW (320°)9.3 km/h0.25 mmRainLight Rain
3:01 AM24 °C23 °C94 %1009.5 hPa14.5 kmNW (320°)9.3 km/h0.25 mmRainLight Rain
3:54 AM23.6 °C23.3 °C98 %1008.5 hPa16.1 kmNW (310°)14.8 km/h0.76 mmRainLight Rain
3:54 AM23.6 °C23.3 °C98 %1008.5 hPa16.1 kmNW (310°)14.8 km/h0.76 mmRainLight Rain
4:37 AM24 °C24 °C100 %1008.8 hPa12.9 kmWNW (300°)14.8 km/h0.25 mmRainLight Rain
4:37 AM24 °C24 °C100 %1008.8 hPa12.9 kmWNW (300°)14.8 km/h0.25 mmRainLight Rain
4:44 AM24 °C24 °C100 %1009.1 hPa16.1 kmWNW (300°)13 km/h0.25 mmRainLight Rain
4:44 AM24 °C24 °C100 %1009.1 hPa16.1 kmWNW (300°)13 km/h0.25 mmRainLight Rain
4:54 AM25 °C23.9 °C94 %1008.5 hPa16.1 kmWNW (300°)14.8 km/h0.25 mmOvercast
4:54 AM25 °C23.9 °C94 %1008.5 hPa16.1 kmWNW (300°)14.8 km/h0.25 mmOvercast
5:44 AM-17.8 °C-17.8 °C1008.8 hPa8 kmNW (310°)14.8 km/h0.25 mmRainRain
5:44 AM-17.8 °C-17.8 °C1008.8 hPa8 kmNW (310°)14.8 km/h0.25 mmRainRain
5:54 AM25.1 °C24.4 °C96 %1008.5 hPa4.8 kmNW (310°)20.4 km/h1.52 mmRainRain
5:54 AM25.1 °C24.4 °C96 %1008.5 hPa4.8 kmNW (310°)20.4 km/h1.52 mmRainRain
5:59 AM25 °C24 °C94 %1009.1 hPa9.7 kmNW (320°)20.4 km/h0 mmRainLight Rain
5:59 AM25 °C24 °C94 %1009.1 hPa9.7 kmNW (320°)20.4 km/h0 mmRainLight Rain
6:54 AM25.1 °C24.4 °C96 %1008.5 hPa4.8 kmWNW (300°)20.4 km/h0.76 mmRainLight Rain
6:54 AM25.1 °C24.4 °C96 %1008.5 hPa4.8 kmWNW (300°)20.4 km/h0.76 mmRainLight Rain
7:54 AM25 °C24.4 °C96 %1008.1 hPa4.8 kmNNW (330°)14.8 km/h1.27 mmRainLight Rain
7:54 AM25 °C24.4 °C96 %1008.1 hPa4.8 kmNNW (330°)14.8 km/h1.27 mmRainLight Rain
8:14 AM26 °C25 °C94 %1008.5 hPa16.1 kmNNW (340°)7.4 km/h0.51 mmOvercast
8:14 AM26 °C25 °C94 %1008.5 hPa16.1 kmNNW (340°)7.4 km/h0.51 mmOvercast
8:31 AM26 °C25 °C94 %1008.1 hPa4 kmWNW (290°)7.4 km/h1.52 mmRainRain
8:31 AM26 °C25 °C94 %1008.1 hPa4 kmWNW (290°)7.4 km/h1.52 mmRainRain
8:42 AM26 °C25 °C94 %1008.1 hPa2.9 kmWSW (240°)11.1 km/h2.29 mmRainHeavy Rain
8:42 AM26 °C25 °C94 %1008.1 hPa2.9 kmWSW (240°)11.1 km/h2.29 mmRainHeavy Rain
8:50 AM26 °C25 °C94 %1008.1 hPa3.2 kmSSW (210°)13 km/h3.05 mmRainRain
8:50 AM26 °C25 °C94 %1008.1 hPa3.2 kmSSW (210°)13 km/h3.05 mmRainRain
8:54 AM25.8 °C25 °C95 %1007.5 hPa4 kmSSW (210°)13 km/h3.56 mmRainRain
8:54 AM25.8 °C25 °C95 %1007.5 hPa4 kmSSW (210°)13 km/h3.56 mmRainRain
9:38 AM25 °C25 °C100 %1008.5 hPa4.8 kmSSW (210°)20.4 km/h2.79 mmRainLight Rain
9:38 AM25 °C25 °C100 %1008.5 hPa4.8 kmSSW (210°)20.4 km/h2.79 mmRainLight Rain
9:51 AM25 °C25 °C100 %1008.5 hPa8 kmSouth (190°)14.8 km/h3.05 mmRainLight Rain
9:51 AM25 °C25 °C100 %1008.5 hPa8 kmSouth (190°)14.8 km/h3.05 mmRainLight Rain
9:54 AM25.1 °C24.5 °C96 %1007.8 hPa11.3 kmSSW (200°)14.8 km/h3.05 mmOvercast
9:54 AM25.1 °C24.5 °C96 %1007.8 hPa11.3 kmSSW (200°)14.8 km/h3.05 mmOvercast
10:01 AM25 °C25 °C100 %1008.5 hPa16.1 kmSouth (190°)14.8 km/hOvercast
10:01 AM25 °C25 °C100 %1008.5 hPa16.1 kmSouth (190°)14.8 km/hOvercast
10:26 AM25 °C25 °C100 %1008.5 hPa16.1 kmSouth (180°)13 km/hOvercast
10:26 AM25 °C25 °C100 %1008.5 hPa16.1 kmSouth (180°)13 km/hOvercast
10:33 AM25 °C25 °C100 %1008.8 hPa16.1 kmSouth (190°)9.3 km/hOvercast
10:33 AM25 °C25 °C100 %1008.8 hPa16.1 kmSouth (190°)9.3 km/hOvercast
10:54 AM25.6 °C25 °C96 %1008.5 hPa16.1 kmSouth (190°)13 km/hOvercast
10:54 AM25.6 °C25 °C96 %1008.5 hPa16.1 kmSouth (190°)13 km/hOvercast
11:54 AM26.7 °C25 °C90 %1008.5 hPa16.1 kmSouth (190°)9.3 km/hOvercast
11:54 AM26.7 °C25 °C90 %1008.5 hPa16.1 kmSouth (190°)9.3 km/hOvercast
12:54 PM27.8 °C23.9 °C79 %1008.1 hPa16.1 kmSSE (160°)14.8 km/hPartly Cloudy
12:54 PM27.8 °C23.9 °C79 %1008.1 hPa16.1 kmSSE (160°)14.8 km/hPartly Cloudy
1:29 PM28 °C24 °C79 %1008.8 hPa16.1 kmSouth (170°)14.8 km/hMostly Cloudy
1:29 PM28 °C24 °C79 %1008.8 hPa16.1 kmSouth (170°)14.8 km/hMostly Cloudy
1:45 PM28 °C24 °C79 %1008.5 hPa16.1 kmSSE (150°)16.7 km/hScattered Clouds
1:45 PM28 °C24 °C79 %1008.5 hPa16.1 kmSSE (150°)16.7 km/hScattered Clouds
1:54 PM28.3 °C24.4 °C79 %1007.5 hPa16.1 kmSSE (150°)16.7 km/hScattered Clouds
1:54 PM28.3 °C24.4 °C79 %1007.5 hPa16.1 kmSSE (150°)16.7 km/hScattered Clouds
2:51 PM29 °C24 °C74 %1008.5 hPa16.1 kmSSE (160°)14.8 km/hMostly Cloudy
2:51 PM29 °C24 °C74 %1008.5 hPa16.1 kmSSE (160°)14.8 km/hMostly Cloudy
2:54 PM28.3 °C24.4 °C79 %1007.8 hPa16.1 kmSouth (170°)14.8 km/hMostly Cloudy
2:54 PM28.3 °C24.4 °C79 %1007.8 hPa16.1 kmSouth (170°)14.8 km/hMostly Cloudy
3:15 PM28 °C24 °C79 %1008.8 hPa16.1 kmSouth (180°)16.7 km/hScattered Clouds
3:15 PM28 °C24 °C79 %1008.8 hPa16.1 kmSouth (180°)16.7 km/hScattered Clouds
3:54 PM28.3 °C23.9 °C77 %1007.8 hPa16.1 kmSouth (170°)14.8 km/hPartly Cloudy
3:54 PM28.3 °C23.9 °C77 %1007.8 hPa16.1 kmSouth (170°)14.8 km/hPartly Cloudy
4:54 PM28.3 °C23.9 °C77 %1007.5 hPa16.1 kmSSE (160°)14.8 km/hPartly Cloudy
4:54 PM28.3 °C23.9 °C77 %1007.5 hPa16.1 kmSSE (160°)14.8 km/hPartly Cloudy
5:54 PM27.8 °C23.9 °C79 %1007.8 hPa16.1 kmSouth (180°)11.1 km/hPartly Cloudy
5:54 PM27.8 °C23.9 °C79 %1007.8 hPa16.1 kmSouth (180°)11.1 km/hPartly Cloudy
6:54 PM26.7 °C23.9 °C85 %1008.5 hPa16.1 kmCalmPartly Cloudy
6:54 PM26.7 °C23.9 °C85 %1008.5 hPa16.1 kmCalmPartly Cloudy
7:54 PM26.7 °C23.9 °C85 %1009.1 hPa16.1 kmCalmPartly Cloudy
7:54 PM26.7 °C23.9 °C85 %1009.1 hPa16.1 kmCalmPartly Cloudy
8:54 PM26.7 °C23.9 °C85 %1009.8 hPa16.1 kmCalmPartly Cloudy
8:54 PM26.7 °C23.9 °C85 %1009.8 hPa16.1 kmCalmPartly Cloudy
9:54 PM26.7 °C23.9 °C85 %1010.5 hPa16.1 kmEast (80°)5.6 km/hPartly Cloudy
9:54 PM26.7 °C23.9 °C85 %1010.5 hPa16.1 kmEast (80°)5.6 km/hPartly Cloudy
10:54 PM26.7 °C23.9 °C85 %1010.5 hPa16.1 kmESE (110°)5.6 km/hPartly Cloudy
10:54 PM26.7 °C23.9 °C85 %1010.5 hPa16.1 kmESE (110°)5.6 km/hPartly Cloudy
11:54 PM26.1 °C23.3 °C84 %1009.8 hPa16.1 kmCalmPartly Cloudy
11:54 PM26.1 °C23.3 °C84 %1009.8 hPa16.1 kmCalmPartly Cloudy
Hourly data recorded from PGUM, located 0 kilometers away from Camp Quezon, Guam







STORIES FROM OUR PARTNERS